Regional Weather Roundup
Issued by NWS New Orleans/Baton Rouge, LA

Home | Current Version | Previous Version | Text Only | Print | Product List | Glossary On
Versions: 1 2 3 4 5 6 7 8 9 10 11 12 13 14 15 16 17 18 19 20 21 22 23 24 25 26 27 28 29 30 31 32 33 34 35 36 37 38 39 40 41 42 43 44 45 46 47 48 49 50
000
ASUS44 KLIX 221310
RWRLIX
NEW ORLEANS REGIONAL WEATHER ROUNDUP
NATIONAL WEATHER SERVICE NEW ORLEANS LA
800 AM CDT TUE JUL 22 2014

NOTE: "FAIR" INDICATES FEW OR NO CLOUDS BELOW 12,000 FEET WITH NO
      SIGNIFICANT WEATHER AND/OR OBSTRUCTIONS TO VISIBILITY.
      SKY/WX - SKY CONDITION AND SIGNIFICANT WEATHER.
      TMP - AIR TEMPERATURE.     DP    - DEWPOINT TEMPERATURE.
      RH  - RELATIVE HUMIDITY.   PRES  - PRESSURE.
      HI  - HEAT INDEX.          WCI   - WIND CHILL INDEX.

*  THESE STATIONS ARE NOT NWS OR FAA STATIONS AND ARE NOT UNDER
   NWS QUALITY CONTROL.

LAZ038-040-048-061>063-065>067-069-221400-
SOUTHEAST LOUISIANA

CITY           SKY/WX    TMP DP  RH WIND       PRES   REMARKS
N.O. AUDUBON     N/A     85  77  77 MISG        N/A
N.O. INTL ARPT PTSUNNY   82  76  81 CALM      30.03R
N.O. LAKEFRONT MOSUNNY   82  76  81 SW3       30.03R
N.O. DOWNTOWN*   N/A     84  73  70 CALM      30.03R
SLIDELL        MOSUNNY   76  71  85 CALM      30.03R
BATON ROUGE    SUNNY     76  71  85 NE3       30.03S
BOOTHVILLE     SUNNY     82  77  84 CALM      30.04R
BELLE CHASSE   PTSUNNY   81  75  82 CALM      30.02S HAZE
BOGALUSA*        N/A     74  69  86 CALM      30.05S
GALLIANO*      NOT AVBL
NEW ROADS*       N/A     74  72  93 CALM      30.04R
GONZALES*        N/A     76  74  96 CALM      30.02F
HAMMOND*       MOSUNNY   73  70  88 CALM      30.05S
HOUMA*         SUNNY     79  75  89 CALM      30.02F FOG
PORT FOURCHON* MOSUNNY   82  77  83 W5        30.04S

$$

MSZ070-080>082-221400-
SOUTHERN MISSISSIPPI

CITY           SKY/WX    TMP DP  RH WIND       PRES   REMARKS
MCCOMB         SUNNY     73  69  87 N3        30.05R
GULFPORT       PTSUNNY   80  71  74 CALM      30.02S
BILOXI         PTSUNNY   79  71  77 VRB2      30.03R
PASCAGOULA     PTSUNNY   78  73  84 CALM      30.03R
STENNIS ARPT*  SUNNY    N/A N/A N/A CALM      30.04R

$$

COASTAL OBSERVATIONS
LAKE AND NEARSHORE STATIONS

STATION/POSITION TIME  TEMP    WIND        PRES    WAVE
                       AIR SEA DIR/SP/G            HT/PER
                 (UTC) (F)     (DEG/KT/KT) (MB)    (FT/S)
PASCAGOULA       1300   78     320/  4/  6 1016.4
WAVELAND YACHT   1300   78      40/  4/  6 1016.5
GRAND ISLE       1300   82 84  250/  4/  5 1017.5
SOUTHWEST PASS   1300   82 85  320/  1/  2 1017.4
NEW CANAL        1300   82 82  220/  3/  4 1017.1
SHELL BEACH      1300   81 81  280/  3/  4 1016.7

OFFSHORE STATIONS

STATION/POSITION TIME  TEMP    WIND        PRES    WAVE
                       AIR SEA DIR/SP/G            HT/PER
                 (UTC) (F)     (DEG/KT/KT) (MB)    (FT/S)
64 S DAUPHIN ISL 1155   82 83  320/  6/  6 1017.3

$$



USA.gov is the U.S. government's official web portal to all federal, state and local government web resources and services.